This is the latest recevied weather packets stored in our database for station/object KD5HIA. If no packets are shown the sender has not sent any weather packets the latest 10 day(s).
| Time | Temp. | Humidity | Pressure | Rain* | Wind** | Luminosity | Snow |
|---|---|---|---|---|---|---|---|
| 1777669518 | 13.89° C | 80% | 1015.3 hPa | 0 mm | - | 468 W/m² | - |
| 1777668917 | 13.89° C | 80% | 1015.4 hPa | 0 mm | - | 371 W/m² | - |
| 1777668317 | 13.89° C | 83% | 1015.6 hPa | 0 mm | - | 421 W/m² | - |
| 1777667718 | 13.89° C | 85% | 1016 hPa | 0 mm | - | 558 W/m² | - |
| 1777667117 | 13.33° C | 84% | 1016.1 hPa | 0.25 mm | - | 441 W/m² | - |
| 1777666517 | 13.33° C | 86% | 1016.4 hPa | 0.25 mm | - | 484 W/m² | - |
| 1777665917 | 13.33° C | 85% | 1016.5 hPa | 0.25 mm | - | 795 W/m² | - |
| 1777665318 | 12.78° C | 88% | 1016.6 hPa | 0.51 mm | - | 849 W/m² | - |
| 1777664718 | 12.22° C | 89% | 1016.6 hPa | 0.51 mm | - | 534 W/m² | - |
| 1777664118 | 11.67° C | 91% | 1016.7 hPa | 0.76 mm | - | 290 W/m² | - |
| 1777663518 | 11.67° C | 92% | 1016.9 hPa | 0.76 mm | - | 236 W/m² | - |
| 1777662918 | 11.67° C | 92% | 1017 hPa | 1.52 mm | - | 180 W/m² | - |
| 1777662318 | 11.67° C | 92% | 1017.1 hPa | 2.03 mm | - | 114 W/m² | - |
| 1777661718 | 11.67° C | 93% | 1017.1 hPa | 2.29 mm | - | 151 W/m² | - |
| 1777661118 | 11.67° C | 93% | 1017.2 hPa | 2.79 mm | - | 88 W/m² | - |
| 1777660518 | 11.67° C | 93% | 1017.1 hPa | 2.54 mm | - | 128 W/m² | - |
| 1777659918 | 12.22° C | 93% | 1017.3 hPa | 2.29 mm | - | 97 W/m² | - |
| 1777659318 | 12.22° C | 92% | 1017.2 hPa | 1.78 mm | - | 77 W/m² | - |
| 1777658718 | 12.22° C | 91% | 1017 hPa | 1.27 mm | - | 64 W/m² | - |
| 1777658118 | 12.22° C | 91% | 1016.9 hPa | 0.51 mm | - | 44 W/m² | - |
| 1777657518 | 12.22° C | 91% | 1016.7 hPa | 0 mm | - | 25 W/m² | - |
| 1777656918 | 12.78° C | 92% | 1016.5 hPa | 0.25 mm | - | 28 W/m² | - |
| 1777656318 | 12.78° C | 92% | 1016.1 hPa | 0.51 mm | - | 58 W/m² | - |
| 1777655718 | 13.33° C | 93% | 1015.8 hPa | 0.76 mm | - | 141 W/m² | - |
| 1777655117 | 12.78° C | 93% | 1015.3 hPa | 0.76 mm | - | 112 W/m² | - |
* Rain latest hour (hover to see other rain measurements)
** Current wind speed in m/s (hover to see current wind gust speed)